Location: Newark
(49.8969°N, 3.3422°E)
Time: 11:25:36
(UTC+00:00)

deb Explorer IX - Pass Details

Date: 28 January 2020
Orbit: 549 x 1099 km, 38.8° (Epoch: 19 February)

Event Time Altitude Azimuth Distance (km) Brightness Sun altitude
Enters shadow 21:47:34 - 244° (WSW) 3,757 ? -48.7°
Rises 21:47:42 0° 244° (WSW) 3,713 - -48.8°
Reaches altitude 10° 21:50:33 10° 235° (SW) 2,827 - -49.1°
Maximum altitude 21:56:38 33° 174° (S) 1,727 - -49.9°
Drops below altitude 10° 22:02:59 10° 114° (ESE) 2,948 - -50.6°
Sets 22:06:01 0° 105° (ESE) 3,893 - -51.0°
